RH
73 74 67 63 60 51 34 25 41 41 45 53 81 92 64 58 62 63 67 65 60 63 65 67 70 69 67 57 61 71 66 78 89 83 66 70 76 82 86 87 86 86 93 84
73 73 72 69 66 56 37 31 37 37 37 75 84 74 71 66 67 66 70 69 60 55 65 69 65 64 62 60 67 75 68 82 85 67 70 81 87 86 81 77 86 91 92 82
71 73 73 74 71 60 39 34 62 35 42 61 70 67 66 69 66 66 66 64 59 60 64 62 66 64 66 65 66 65 64 82 73 57 52 76 94 87 86 80 98 84 79 74
67 72 76 74 74 63 39 38 59 52 76 64 68 64 68 68 68 67 65 62 66 66 69 66 69 64 71 73 70 77 76 92 92 87 85 80 78 79 89 92 77 86 54 67
76 75 73 73 73 68 43 38 46 52 61 62 60 65 71 69 62 64 68 69 59 70 67 62 54 62 69 67 86 83 85 90 91 97 82 86 91 81 79 77 85 81 75 78
79 82 78 76 77 78 53 47 49 52 64 68 64 60 53 61 60 54 52 63 65 69 68 54 50 47 48 54 84 91 94 96 88 87 78 80 66 59 70 71 69 67 82 57
96 98 87 81 84 84 83 57 50 54 49 71 64 54 59 58 60 58 57 61 60 50 52 52 53 60 65 69 74 76 93 88 86 95 80 61 32 40 46 62 58 56 55 46
99 98 99 93 90 87 88 83 56 54 63 62 53 54 57 52 49 60 59 56 55 55 51 56 52 45 50 74 83 90 78 86 79 96 99 72 30 43 54 55 41 53 56 50
96 95 96 100 99 95 98 97 84 59 58 63 46 48 48 53 57 56 55 59 61 60 65 62 54 44 34 50 85 89 84 78 73 89 97 82 27 34 45 42 28 22 48 49
97 94 94 99 100 98 99 99 100 82 64 59 54 55 51 46 54 57 54 64 70 65 78 77 81 64 51 49 82 92 98 94 90 77 83 79 58 50 41 30 14 21 34 36
98 96 97 100 97 99 100 98 100 100 76 83 81 69 59 55 53 52 52 60 73 83 81 78 73 79 66 59 66 90 90 94 88 75 89 90 49 50 50 30 21 29 29 27
97 97 96 100 98 100 100 99 100 100 99 88 94 90 94 93 84 54 52 51 61 64 81 84 77 78 80 70 61 77 79 72 86 77 68 46 44 38 31 33 34 30 32 29
91 88 92 99 96 100 100 100 100 99 100 96 95 81 79 80 74 78 62 60 53 57 58 65 72 89 76 77 76 63 69 58 70 67 50 47 46 35 34 32 31 27 29 29
95 93 88 87 92 93 91 97 99 99 100 100 92 89 84 77 74 72 74 73 68 66 71 77 94 99 71 76 65 63 50 61 62 67 50 39 37 34 32 35 33 31 29 33
85 88 87 84 84 82 82 84 81 79 92 97 93 91 83 72 83 90 80 72 74 76 87 99 99 90 76 86 90 90 52 47 48 49 36 41 39 38 39 42 41 43 43 44
57 65 68 65 76 82 78 92 89 100 100 100 99 94 82 79 94 92 88 91 83 86 98 99 99 98 77 99 98 68 52 52 48 44 42 44 43 43 44 49 49 49 47 46
58 57 56 59 63 70 77 88 100 100 100 99 99 99 98 99 96 93 91 89 90 87 99 100 100 96 86 99 89 62 51 50 51 52 52 55 53 53 54 56 56 58 58 57
57 61 58 52 48 50 56 60 79 91 100 100 100 99 99 96 89 91 91 95 98 96 98 100 100 97 98 98 77 56 57 58 59 58 58 60 60 59 52 48 51 55 60 56
26 32 48 50 41 53 69 74 87 92 94 100 100 98 96 98 97 92 99 100 100 96 98 98 99 97 97 84 66 60 60 60 53 56 57 58 60 48 45 43 44 55 46 44
32 48 60 76 99 90 89 88 95 100 98 100 99 96 98 90 100 100 100 99 98 98 94 97 99 90 65 56 64 61 54 62 67 67 65 52 48 46 42 43 53 58 60 56
66 78 78 91 85 79 74 90 99 99 99 99 96 97 86 86 97 96 90 98 98 98 88 97 96 93 71 58 57 60 60 57 58 56 52 50 47 44 57 52 54 57 59 54
94 92 89 97 94 91 97 94 96 99 94 90 95 92 92 87 91 93 99 98 98 96 94 98 98 83 63 60 60 60 55 54 56 54 45 47 55 58 58 57 56 53 56 58
60 83 91 95 85 96 98 96 98 96 89 89 97 91 90 98 99 100 99 98 95 93 98 94 89 72 86 85 70 59 60 59 62 69 79 59 45 60 61 59 55 47 39 40
71 98 99 96 94 96 94 92 90 70 81 97 99 94 99 99 99 98 99 94 98 97 96 94 83 94 99 100 92 95 96 90 85 67 46 33 33 32 58 63 61 52 48 42
84 96 95 99 87 72 76 86 78 77 90 95 99 99 100 98 99 94 92 97 95 93 90 86 99 100 99 99 98 95 87 64 78 90 77 58 32 32 28 51 63 62 56 52
94 96 92 97 98 96 82 82 94 97 95 90 96 98 98 86 95 99 94 97 95 92 98 98 80 82 65 64 79 70 68 49 46 47 51 58 43 48 46 33 30 50 62 65
98 95 86 74 68 78 63 60 54 54 76 95 83 98 93 94 98 94 95 96 73 89 98 88 76 60 49 56 67 68 67 47 43 42 53 61 50 49 51 40 32 35 34 37
Wind_Speed
26 27 26 23 21 20 16 4 3 10 11 5 4 2 4 3 3 1 1 2 2 5 6 4 2 3 5 8 5 4 1 3 4 7 1 4 4 6 6 3 4 4 2 9
26 26 25 24 23 22 18 4 3 8 8 3 2 1 2 2 3 2 1 2 3 2 5 2 4 3 2 8 5 5 3 1 2 5 3 1 4 5 4 3 3 7 4 6
25 25 24 23 23 20 15 5 3 6 8 7 6 3 1 2 2 1 2 1 2 2 1 2 1 2 2 6 3 2 3 2 5 5 2 3 4 5 8 6 4 3 13 9
22 24 23 22 21 19 13 7 2 3 2 5 3 2 5 2 3 3 5 2 5 5 2 1 3 2 1 1 3 3 3 3 1 6 9 7 11 10 9 15 17 10 3 14
22 21 22 22 20 17 8 5 3 2 2 1 2 2 4 5 2 4 3 4 1 5 5 7 5 4 4 5 1 4 1 3 1 5 7 6 12 16 18 20 20 22 23 29
22 18 18 19 19 16 6 7 4 2 2 2 2 3 3 3 4 5 4 5 2 3 11 16 11 8 6 5 8 7 5 2 2 5 4 9 10 15 22 10 10 25 18 28
19 16 15 15 15 14 11 8 5 3 1 1 3 1 4 4 5 3 2 9 5 3 1 3 6 8 11 10 10 10 6 5 2 4 6 3 5 3 4 18 10 19 14 19
12 12 13 13 12 9 8 7 4 3 2 4 4 4 5 7 6 5 6 9 8 5 2 2 5 3 3 3 4 6 5 5 1 2 2 11 6 3 4 6 8 19 22 22
11 11 11 10 10 10 7 7 5 2 2 4 4 1 1 2 2 5 4 5 6 8 3 2 3 4 3 3 1 5 5 3 6 3 2 5 3 4 3 3 6 2 17 14
12 12 11 8 8 10 7 8 8 4 4 6 4 4 3 3 2 2 4 2 3 8 2 3 4 5 4 4 5 5 4 2 12 10 6 9 11 12 7 2 5 4 6 15
11 11 9 8 8 10 8 9 9 10 5 13 18 13 9 7 5 3 3 1 2 2 2 3 4 4 4 2 5 7 8 7 5 8 5 11 14 7 7 6 3 3 6 7
11 10 7 8 10 11 10 13 12 14 14 11 22 28 27 25 21 15 8 4 5 10 2 2 1 3 2 4 4 1 4 8 6 11 9 5 13 10 17 16 17 27 30 33
12 7 8 8 9 10 12 12 12 15 11 17 18 12 10 15 16 16 10 12 17 8 10 4 1 5 3 4 6 5 5 10 4 1 9 23 28 34 34 37 37 36 30 26
10 9 11 12 11 13 13 13 12 15 14 4 10 19 15 9 8 13 21 31 16 15 12 7 4 3 10 4 4 4 3 8 6 7 16 29 33 38 40 32 32 33 26 30
12 12 12 13 15 18 17 18 19 17 14 7 13 25 31 31 34 28 25 24 31 20 5 5 3 5 4 5 2 5 12 16 11 14 22 21 23 31 27 26 34 41 39 46
12 14 16 16 14 13 15 7 7 14 17 7 3 5 10 21 17 13 15 20 17 16 8 6 7 9 8 4 4 5 26 46 45 36 40 34 36 44 52 47 47 42 34 32
12 11 11 12 14 16 13 6 2 6 12 5 6 4 5 7 8 9 9 13 11 12 6 7 5 6 11 3 14 13 33 40 32 27 31 28 35 31 38 44 46 42 43 43
14 14 13 14 15 17 20 20 22 19 13 7 3 3 4 6 4 2 5 5 8 8 6 5 5 4 8 5 15 43 44 39 38 44 37 36 35 34 41 38 36 35 36 34
13 14 15 17 16 11 10 10 9 10 14 5 5 2 4 3 4 4 4 6 3 6 4 5 7 3 6 14 31 29 24 20 30 29 27 36 33 27 29 28 28 29 29 28
10 10 5 3 3 7 9 7 4 7 10 8 5 7 4 6 7 3 1 7 3 3 6 6 4 7 35 43 30 35 45 37 27 25 28 23 29 27 29 30 29 28 29 28
4 2 3 6 8 5 4 5 5 5 3 7 8 14 10 11 5 3 9 3 3 3 4 6 4 5 8 8 12 14 12 9 9 13 17 19 20 23 26 29 26 25 22 19
2 5 10 7 4 6 4 3 2 3 4 5 4 4 7 7 10 6 6 4 3 6 8 3 3 4 8 14 12 13 12 10 11 12 14 16 18 21 23 23 23 23 22 18
7 4 4 3 6 6 5 5 3 3 4 4 3 3 4 4 8 7 3 5 5 7 4 4 4 9 15 17 15 17 20 21 20 20 20 20 22 22 24 24 21 21 19 16
4 4 5 5 5 5 4 4 4 3 3 4 4 4 6 6 4 4 5 3 2 3 1 5 3 9 11 19 26 27 27 26 21 19 21 26 24 24 23 25 24 20 17 12
6 6 6 6 9 9 5 5 9 8 7 4 4 7 6 3 4 4 4 3 4 5 4 2 8 7 6 18 24 24 26 27 29 27 27 28 29 27 25 21 22 20 17 15
8 9 5 4 1 5 8 10 12 10 7 5 6 3 3 6 4 5 7 3 5 3 2 1 15 17 19 21 17 24 24 24 28 28 26 28 31 27 27 27 24 21 19 20
7 9 19 20 18 15 24 24 28 22 14 3 4 5 7 4 4 5 3 5 7 7 15 12 17 24 30 30 27 27 25 26 28 31 32 31 33 29 30 31 26 24 24 26
Wind_Direction
357 0 1 2 0 2 359 350 44 7 360 40 35 79 124 130 164 195 158 161 158 166 167 189 229 220 218 184 171 183 200 151 194 207 203 168 180 182 161 138 216 222 254 273
356 2 3 2 1 2 1 18 4 15 15 86 37 62 98 122 131 200 195 261 219 181 175 180 199 215 326 176 164 169 191 299 359 349 18 23 218 196 171 121 112 202 169 259
353 357 4 4 1 3 359 355 16 29 51 75 120 123 125 151 188 193 192 243 17 4 289 206 215 230 162 190 201 178 133 179 206 200 193 134 221 206 194 170 185 206 227 280
347 350 357 1 2 5 359 12 46 30 344 15 79 99 156 146 203 208 198 213 204 175 198 241 244 219 117 159 189 129 115 259 202 268 259 246 243 236 202 210 221 205 208 234
339 346 350 355 360 7 16 21 360 28 78 76 100 26 220 191 198 172 243 200 151 198 203 190 197 163 200 207 106 153 121 262 131 278 279 253 262 244 228 229 230 245 257 274
330 337 344 348 359 10 19 10 355 346 342 76 100 223 184 224 185 230 227 218 178 206 237 244 253 248 248 201 165 183 159 184 13 265 327 297 277 243 215 210 216 223 236 245
325 332 336 341 352 7 15 7 342 330 281 199 213 251 200 199 228 253 227 204 170 276 256 296 268 252 245 215 209 177 150 138 153 287 347 290 249 279 191 211 241 218 249 262
320 323 328 329 337 340 1 4 356 325 292 245 288 255 255 286 254 225 234 237 229 205 170 13 332 325 304 223 211 186 162 141 266 255 264 293 310 17 156 172 279 216 221 246
307 308 322 325 325 327 333 346 339 302 303 250 251 335 233 229 264 321 250 253 224 186 105 119 223 238 260 259 96 25 126 103 171 149 283 261 279 332 297 222 295 302 202 238
293 300 305 309 309 314 306 308 310 286 269 278 233 217 218 205 182 224 291 283 194 197 147 181 201 240 186 232 185 172 142 208 217 213 233 273 248 240 320 316 246 356 214 242
280 298 293 291 292 307 293 288 289 270 237 270 269 255 239 252 223 195 187 12 219 75 204 197 224 210 234 199 176 174 176 170 194 205 217 265 195 104 169 210 281 346 313 307
282 291 296 284 285 296 293 287 293 288 246 269 286 284 274 264 264 266 227 245 177 209 168 243 301 239 203 192 251 141 226 194 185 195 210 263 197 232 229 263 274 291 293 294
279 290 281 267 290 283 277 292 292 296 279 291 276 293 302 295 278 256 240 254 243 227 245 215 175 239 148 215 232 204 247 189 223 117 253 249 259 267 267 274 275 287 289 289
260 263 270 277 282 281 294 295 292 298 295 262 272 278 293 300 288 278 245 239 249 242 232 224 216 210 207 223 266 216 207 148 226 256 273 276 271 271 275 288 289 289 282 290
268 269 267 270 280 290 298 297 285 277 251 269 277 281 283 282 278 267 258 249 241 239 207 223 233 236 236 229 256 219 211 241 241 256 256 269 279 288 283 288 287 287 289 292
272 268 270 277 280 279 298 301 246 245 258 271 310 270 239 243 265 266 257 244 242 223 202 209 230 223 224 245 244 207 230 242 243 254 268 273 279 282 286 290 293 296 294 290
274 280 284 284 280 274 266 251 228 282 312 291 288 268 265 278 267 248 240 232 219 210 218 228 232 221 215 256 258 265 255 257 260 266 273 278 276 278 290 289 292 290 289 290
275 279 282 282 278 273 267 260 261 272 279 241 251 262 277 232 218 210 193 197 198 217 226 229 220 221 207 257 244 257 258 262 270 270 271 270 283 287 290 295 296 295 292 294
285 281 285 289 278 263 260 285 278 253 222 248 222 197 255 220 223 184 200 207 218 228 229 219 181 206 224 228 243 257 272 260 269 280 279 294 294 297 300 306 306 300 299 300
300 297 282 258 234 270 288 274 225 208 208 234 228 215 237 207 186 180 223 211 231 226 219 191 232 252 255 259 270 274 278 283 282 280 290 305 309 314 314 314 315 310 305 302
309 252 276 293 301 288 246 259 214 201 239 216 239 235 239 240 201 191 215 207 215 233 224 190 219 257 272 337 306 298 303 317 320 294 295 307 309 314 320 327 330 327 317 305
264 286 292 271 242 224 225 220 192 226 234 205 220 261 234 238 215 206 203 217 182 243 151 220 246 265 358 357 11 16 4 355 7 2 354 353 348 342 334 331 333 335 329 320
269 246 241 228 214 227 206 211 196 232 217 200 203 241 233 226 225 245 230 222 232 141 190 225 230 342 29 33 37 32 34 30 32 26 17 356 346 348 345 336 338 336 333 325
227 232 243 214 218 236 205 190 195 255 282 176 208 247 226 221 208 234 256 225 220 246 226 237 307 7 47 43 18 15 11 11 359 356 354 347 341 342 345 346 341 338 341 343
223 232 237 215 226 252 280 300 269 292 318 303 273 251 240 224 251 223 269 244 240 212 228 208 2 350 8 347 1 6 352 344 342 333 320 329 338 331 330 330 332 339 334 321
218 228 249 236 195 282 280 278 277 295 301 310 247 247 256 243 229 209 225 222 230 250 233 83 347 312 317 315 322 325 328 326 313 311 316 318 328 326 318 315 318 318 318 318
228 225 229 243 264 272 277 277 281 287 283 214 262 264 233 288 234 221 199 221 263 212 193 289 326 333 327 315 305 305 303 306 305 306 310 309 317 313 312 313 318 315 306 300